Location: Berlin
(52.5171°N, 13.3759°E)
Time: 03:10:14
(UTC+01:00)

ISS - Pass Details

Date: 12 November 2017
Orbit: 402 x 407 km, 51.6° (Epoch: 24 November)

Event Time Altitude Azimuth Distance (km) Brightness Sun altitude
Exits shadow 04:19:50 19° 99° (E) 1,041 -1.0 -27.7°
Drops below altitude 10° 04:20:52 10° 97° (E) 1,457 -0.1 -27.6°
Sets 04:22:57 0° 96° (E) 2,316 1.2 -27.3°
